SCP
0 0 0 0 0 0 0 0 0 0 0 0 0 0 0 0 0 0 0 0 0 0 0 0 0 0 0 0 0 0 0 0 0 0 0 0 0 0 0 0 0 0 0
0 0 0 0 0 0 0 0 0 0 0 0 0 0 0 0 0 0 0 0 0 0 0 0 0 0 0 0 0 0 0 0 0 0 0 0 0 0 0 0 0 0 0
0 0 0 0 0 0 0 0 0 0 0 0 0 0 0 0 0 0 0 0 0 0 0 0 0 0 0 0 0 0 0 0 0 0 0 0 0 0 0 0 0 0 0
0 0 0 0 0 0 0 0 0 0 0 0 0 0 0 0 0 0 0 0 0 0 0 0 0 0 0 0 0 0 0 0 0 0 -0 -0 0 0 0 0 0 0 0
0 0 0 0 0 0 0 0 0 0 0 0 0 0 0 0 0 0 0 0 0 0 0 0 0 0 0 0 0 0 0 0 0 0 -0 -0 0 0 0 0 0 0 -0
0 0 0 0 0 0 0 0 0 0 0 0 0 0 0 0 0 0 0 0 0 0 0 0 0 0 0 0 0 0 0 0 0 -0 -0 -0 0 0 0 -0 -0 -0 -0
0 0 0 0 0 0 0 0 0 0 0 0 0 0 0 0 0 0 0 0 0 0 0 0 0 0 0 0 0 0 0 0 -0 -0 -0 -0 0 0 -0 -0 -0 -0 -0
0 0 0 0 0 0 0 0 0 0 0 0 0 0 0 0 0 0 0 0 0 0 0 0 0 0 0 0 0 0 0 0 0 0 0 0 0 0 -0 -0 -0 -0 -0
0 0 0 0 0 0 0 0 0 0 0 0 0 0 0 0 -0 -0 0 0 0 0 0 0 0 0 0 0 0 0 0 0 0 0 0 0 0 0 0 -0 -0 -0 -0
0 0 0 0 0 0 0 0 0 0 0 0 0 0 0 0 -0 -0 0 0 0 0 0 0 0 0 0 -0 0 0 0 0 0 0 0 0 0 0 0 -0 -0 -0 -0
0 0 0 0 0 0 0 0 0 0 0 0 0 0 0 0 -0 -0 0 0 0 0 0 0 0 0 -0 -0 0 0 0 0 0 0 0 0 0 0 0 -0 -0 -0 -0
0 0 0 0 0 0 0 0 0 0 0 0 0 0 0 0 0 0 0 0 0 0 0 0 0 0 -0 -0 0 0 0 0 0 0 0 0 0 0 -0 -0 -0 -0 -0
0 0 0 0 0 0 0 0 0 0 0 0 0 0 0 0 0 0 0 0 0 0 0 0 0 0 0 0 0 0 0 0 0 0 0 0 0 0 -0 -0 -0 -0 -0
0 0 0 0 0 0 0 0 0 0 0 0 0 0 0 0 0 0 0 0 0 0 0 0 0 0 0 0 0 0 0 0 0 0 0 0 0 0 0 -0 0 0 -0
0 0 0 0 0 0 0 0 0 0 0 0 0 0 0 0 0 0 0 0 0 0 0 0 0 0 0 0 0 0 0 0 0 0 0 0 0 0 0 0 0 0 0
0 0 0 0 0 0 0 0 0 0 0 0 0 0 0 0 0 0 0 0 0 -0 -0 0 0 0 0 0 0 0 0 0 0 0 0 0 0 0 0 0 0 0 -0
0 0 0 0 0 0 0 0 0 0 0 0 0 0 0 0 0 0 0 0 0 -0 -0 -0 0 0 0 0 0 0 0 0 0 0 0 0 0 0 0 0 0 0 0
0 0 0 0 0 0 0 0 0 0 0 0 0 0 0 0 0 0 0 0 0 -0 -0 -0 0 0 0 0 0 0 0 0 0 0 0 0 0 0 0 0 0 0 0
0 0 0 0 0 0 0 0 0 0 0 0 0 0 0 0 0 0 0 0 0 -0 -0 -0 0 0 0 0 0 0 0 0 0 0 0 0 0 0 0 0 0 0 0
0 0 0 0 0 0 0 0 0 0 0 0 0 0 0 0 0 0 0 0 0 -0 -0 -0 0 0 0 0 0 0 0 0 0 0 0 0 0 0 0 0 0 0 0
0 0 0 0 0 0 0 0 0 0 0 0 0 0 0 0 0 0 0 0 -0 -0 -0 0 0 0 0 0 0 0 0 0 0 0 0 0 0 0 0 0 0 0 0
0 0 0 0 0 0 0 0 0 0 0 0 0 0 0 0 0 0 -0 -0 -0 -0 -0 0 0 0 0 0 0 0 0 0 0 0 0 0 0 0 0 0 0 0 0
0 0 0 0 0 0 0 0 0 0 0 0 0 0 0 0 0 -0 -0 -0 -0 -0 -0 0 0 0 0 0 0 0 0 0 0 0 0 0 0 0 0 0 0 0 0
0 0 0 0 0 0 0 0 0 0 0 0 0 0 0 0 0 -0 -0 -0 -0 0 0 0 0 0 0 0 0 0 0 0 0 0 0 0 0 0 0 0 0 0 0
0 0 0 0 0 0 0 0 0 0 0 0 0 0 0 0 0 0 -0 -0 -0 0 0 0 0 0 0 0 0 0 0 0 0 0 0 0 0 0 0 0 0 0 0
0 0 0 0 0 0 0 0 0 0 0 0 0 0 0 0 0 0 0 0 0 0 0 0 0 0 0 0 0 0 0 0 0 0 0 0 0 0 0 0 0 0 0
Wind_Speed
16 14 12 10 7 6 6 6 7 8 8 9 9 10 11 12 13 14 14 15 17 18 18 19 21 20 16 13 13 15 15 14 19 19 17 19 23 23 17 13 12 12 10
16 14 11 9 8 7 6 6 6 7 8 8 9 11 12 13 13 14 14 15 18 20 20 21 21 19 20 17 15 16 16 16 18 19 18 19 23 23 19 15 13 10 11
16 13 11 9 8 6 6 6 6 7 8 8 9 11 12 13 12 13 14 16 18 19 20 21 20 21 20 17 18 16 15 14 16 18 20 19 18 21 18 17 13 11 10
16 14 11 9 8 6 5 6 6 6 7 9 10 11 12 12 12 13 14 17 19 20 21 21 21 21 21 20 18 18 16 17 17 18 18 18 19 21 13 9 8 9 9
15 13 11 9 6 5 6 6 5 6 7 9 11 12 12 11 11 15 17 18 21 21 21 21 21 23 28 28 22 18 17 16 16 17 16 17 16 16 10 6 6 8 11
15 13 11 9 7 6 5 5 6 6 7 8 10 11 12 10 16 23 22 19 21 21 20 20 21 22 25 33 36 34 30 25 21 19 17 18 16 15 9 7 7 7 10
14 13 11 10 8 6 5 5 6 6 7 8 9 9 12 13 19 24 26 20 20 19 20 19 17 18 22 22 28 33 32 35 35 28 23 24 19 16 11 6 4 5 7
14 13 12 11 9 7 5 4 5 5 6 8 9 10 12 14 20 24 27 20 19 20 19 20 20 21 22 24 22 22 23 25 27 24 23 23 22 18 16 8 3 6 11
15 14 12 10 9 7 5 4 3 4 6 7 9 11 13 15 21 25 24 16 18 19 19 19 21 22 27 33 26 23 23 20 25 34 34 34 36 32 21 8 5 7 11
15 13 11 8 6 5 4 2 2 4 6 8 10 11 14 15 20 24 25 15 18 18 18 18 23 26 32 34 27 23 21 20 18 18 22 27 28 27 30 18 8 8 10
14 12 10 8 7 6 4 1 1 4 6 8 10 12 13 13 16 23 27 17 18 18 16 16 17 30 36 37 33 23 24 23 18 16 15 15 15 13 13 11 10 10 11
13 12 10 7 6 5 4 3 1 2 5 8 10 11 10 11 16 22 28 28 27 21 17 16 19 34 38 37 30 30 34 28 15 13 14 14 14 13 12 12 13 12 14
13 12 10 9 7 5 4 3 2 2 3 7 9 10 10 10 12 20 25 29 29 22 18 25 30 35 31 24 26 28 23 16 14 14 15 15 14 13 12 12 14 15 17
12 12 10 8 7 5 4 3 2 1 4 7 8 10 11 10 10 12 13 15 19 18 17 19 25 25 23 18 16 16 12 10 12 13 12 13 15 13 13 15 14 13 12
14 11 10 8 6 5 4 3 1 1 4 7 7 9 11 11 15 22 20 17 16 19 18 12 14 15 14 13 13 13 12 13 13 12 13 12 13 12 12 12 11 10 12
14 11 9 7 5 4 3 3 2 2 6 7 10 11 11 15 22 24 26 26 27 25 14 12 13 15 15 15 14 14 14 13 13 14 11 13 13 13 12 12 11 11 12
13 12 10 9 6 5 4 2 1 2 4 6 9 12 13 16 19 21 24 25 24 20 11 12 13 14 15 14 14 13 14 13 14 12 12 12 10 10 12 11 10 11 15
12 12 11 9 7 6 5 4 2 2 4 5 9 11 13 17 17 19 22 18 15 14 11 12 13 14 15 14 14 13 13 13 12 12 12 12 10 10 10 10 11 14 13
11 9 10 9 7 7 6 5 4 3 1 4 7 8 11 15 15 15 16 11 12 13 12 12 13 14 15 15 15 14 15 14 14 12 12 12 10 10 11 12 13 13 14
11 12 11 9 8 7 5 5 4 2 0 3 4 6 8 8 9 10 9 9 10 12 12 13 13 14 15 15 15 15 15 14 13 12 12 11 11 12 14 12 9 10 12
11 11 11 8 7 6 5 5 4 2 0 2 3 6 10 7 6 8 9 9 9 11 12 13 13 14 15 15 15 16 16 14 14 13 13 12 12 12 11 6 6 9 10
10 10 9 8 7 7 6 5 3 2 0 2 4 6 9 6 6 7 9 10 9 10 11 12 12 13 14 16 17 17 18 18 17 15 14 13 12 12 11 4 7 7 8
11 11 9 8 7 8 7 5 3 2 1 2 3 5 5 5 6 7 9 10 11 11 11 11 13 13 15 15 16 17 18 18 18 18 16 14 13 12 10 4 6 7 8
11 12 10 8 8 7 7 5 4 2 1 1 3 4 5 5 7 8 9 10 11 11 11 11 13 17 20 18 16 18 18 19 18 17 18 15 14 14 11 6 5 7 7
10 10 9 8 8 7 6 5 4 3 1 1 2 4 5 6 7 8 9 10 11 12 13 13 12 17 22 23 22 24 28 30 26 22 18 16 17 16 14 9 0 7 7
10 9 8 7 6 6 5 5 4 2 1 1 3 4 4 5 7 8 9 9 11 12 13 13 16 20 22 19 21 27 31 33 32 29 21 17 18 17 16 13 12 3 5
Wind_Direction
171 169 172 176 180 195 222 246 262 273 282 291 299 298 292 290 289 287 286 284 279 276 272 272 270 268 266 262 260 259 259 264 273 274 276 281 279 280 262 253 257 257 259
164 165 170 171 180 198 220 244 262 277 286 294 299 295 292 293 294 292 289 286 284 282 280 278 275 274 270 266 264 262 262 262 269 277 277 274 271 272 267 263 256 246 245
160 165 168 177 185 200 223 249 265 276 287 296 297 295 294 294 295 293 292 289 286 283 280 277 274 272 269 266 263 262 264 267 270 274 269 271 278 271 259 256 251 258 254
163 166 171 177 183 198 230 247 261 279 295 299 295 290 290 294 299 297 294 291 287 281 277 272 268 265 264 264 262 259 258 257 259 266 265 266 272 272 261 253 263 264 258
163 166 168 165 174 195 227 248 272 286 285 285 290 291 295 301 299 299 296 291 287 284 279 274 268 265 264 262 260 257 255 257 258 261 259 256 261 268 254 242 276 298 297
162 163 159 164 174 198 219 249 267 272 281 288 290 297 302 302 303 302 299 298 294 290 285 279 275 270 265 265 263 260 255 254 255 260 266 269 268 272 267 268 283 294 295
158 158 161 167 179 194 212 241 263 279 293 294 297 305 305 304 303 305 307 300 294 292 290 286 279 271 269 266 266 264 263 262 259 259 258 260 266 273 278 259 277 294 278
158 162 166 171 176 184 206 232 259 278 293 302 308 305 300 302 306 308 306 303 295 290 288 286 281 279 273 272 270 263 255 252 255 258 259 261 261 262 273 265 238 277 282
165 167 168 171 172 176 190 220 259 291 306 306 301 302 299 298 302 306 308 299 291 293 291 285 279 275 275 277 274 270 264 252 249 254 255 255 259 251 247 234 225 259 281
163 160 157 160 163 173 182 216 296 311 307 308 305 301 293 288 293 304 306 300 296 295 290 284 281 280 278 277 275 274 271 268 253 251 255 255 257 249 245 244 227 250 276
144 141 145 154 168 171 174 172 299 314 314 311 304 298 290 291 296 303 307 306 302 303 305 303 297 294 290 284 278 273 270 272 253 250 253 247 249 242 235 227 222 228 246
138 139 145 158 177 170 166 163 175 326 323 320 307 300 302 307 305 308 313 317 318 315 308 304 305 306 299 286 277 272 272 272 256 232 243 247 235 230 228 225 226 224 231
143 144 153 161 174 173 172 151 112 41 336 317 308 311 311 307 303 309 317 324 324 317 311 319 319 317 309 295 289 283 277 270 261 236 227 241 242 233 234 235 234 227 234
145 149 153 158 165 172 168 138 105 27 328 307 316 313 307 308 307 310 320 326 321 316 324 323 317 325 330 326 313 308 295 281 264 254 238 235 240 233 225 224 225 223 243
149 151 149 152 164 156 137 125 125 198 288 304 314 311 311 311 316 328 335 335 325 328 332 326 323 326 329 329 327 324 323 318 301 257 242 243 242 236 232 230 226 224 235
146 152 149 147 153 142 125 133 149 323 333 326 316 309 312 319 324 330 336 337 333 338 333 330 333 328 329 329 330 327 323 319 315 315 282 243 230 226 227 220 218 231 245
148 149 147 146 149 137 121 114 91 14 352 325 326 320 332 333 335 337 339 335 328 333 336 336 330 328 324 327 327 325 317 314 310 302 294 286 263 236 232 235 234 238 240
141 144 145 146 147 144 143 134 107 36 346 326 315 324 346 345 343 345 347 337 324 328 335 335 328 325 325 323 325 323 316 313 313 306 296 288 282 273 248 236 238 237 214
147 146 140 140 143 147 148 141 135 139 237 291 304 326 343 343 343 349 353 342 325 323 329 332 328 325 326 323 325 326 322 317 317 309 297 287 279 275 260 240 233 218 193
146 144 139 142 147 146 145 136 122 116 329 306 322 327 325 344 344 343 342 331 324 321 326 328 327 326 328 326 328 326 322 319 319 310 302 301 299 283 258 227 213 186 181
141 140 140 141 139 141 133 120 114 127 307 316 328 315 337 354 333 333 330 329 327 322 324 325 325 325 327 328 332 329 324 327 330 325 317 307 297 288 276 206 177 171 173
135 138 143 139 145 141 129 121 129 146 81 344 320 315 338 345 337 334 328 325 321 319 320 319 321 324 328 330 336 337 334 338 339 331 319 307 298 288 280 206 148 156 153
134 134 138 145 144 136 127 127 146 144 77 360 316 318 332 339 339 335 324 319 318 319 321 321 320 324 330 332 341 344 339 343 339 331 320 312 306 302 300 287 129 137 147
135 138 145 146 143 138 133 147 150 136 90 319 313 319 328 334 335 330 323 319 317 318 320 324 323 327 330 333 343 350 345 348 347 339 333 330 328 324 312 275 166 150 153
134 140 147 148 147 140 144 151 151 140 137 288 317 322 331 337 337 329 326 321 318 321 323 324 325 330 333 336 347 356 355 359 0 354 351 351 349 348 345 340 109 164 164
134 140 142 143 142 146 150 148 147 143 183 298 311 317 332 337 331 325 325 324 322 321 322 323 326 332 335 339 350 359 2 5 7 3 4 3 5 6 5 4 3 13 175